When you browse on this site, cookies collect data to enhance your experience and personalize the content and advertising you see.
Visit our Privacy Policy to learn more. By continuing to use the site, you agree to this use of cookies and data.
  • In Latvia
  • List of Countries
  • For 7 days
  • Water Temperature
  • Weather Map
  • Weather Widgets
  • user-avatar
    Login

    Hourly Weather La Rioja

    Today, 12 November, Tuesday

    Time Temperature Precipitation Wind Pressure Humidity
    00:00 +28°C° 0 mm 2 mps 712 mmHg 58%
    01:00 +27°C° 0 mm 2 mps 711 mmHg 59%
    02:00 +27°C° 0 mm 2 mps 711 mmHg 59%
    03:00 +26°C° 0 mm 2 mps 711 mmHg 61%
    04:00 +26°C° 0 mm 2 mps 711 mmHg 63%
    05:00 +25°C° 0 mm 3 mps 711 mmHg 64%
    06:00 +26°C° 0.1 mm 3 mps 711 mmHg 61%
    07:00 +27°C° 0.1 mm 3 mps 712 mmHg 58%
    08:00 +28°C° 0.1 mm 3 mps 712 mmHg 55%
    09:00 +29°C° 0 mm 3 mps 712 mmHg 51%
    10:00 +32°C° 0 mm 4 mps 712 mmHg 48%
    11:00 +33°C° 0 mm 4 mps 712 mmHg 44%
    12:00 +34°C° 0 mm 4 mps 711 mmHg 41%
    13:00 +35°C° 0 mm 3 mps 711 mmHg 39%
    14:00 +36°C° 0 mm 3 mps 710 mmHg 36%
    15:00 +36°C° 0 mm 3 mps 709 mmHg 35%
    16:00 +36°C° 0 mm 2 mps 709 mmHg 34%
    17:00 +36°C° 0 mm 2 mps 708 mmHg 33%
    18:00 +35°C° 0.4 mm 2 mps 709 mmHg 36%
    19:00 +34°C° 0.4 mm 2 mps 710 mmHg 39%
    20:00 +32°C° 0.4 mm 2 mps 710 mmHg 42%
    21:00 +31°C° 0.1 mm 2 mps 711 mmHg 46%
    22:00 +31°C° 0.1 mm 2 mps 711 mmHg 51%
    23:00 +30°C° 0.1 mm 2 mps 711 mmHg 55%

    Tomorrow, 13 November, Wednesday

    Time Temperature Precipitation Wind Pressure Humidity
    00:00 +29°C° 0.5 mm 2 mps 711 mmHg 60%
    01:00 +28°C° 0.5 mm 3 mps 711 mmHg 65%
    02:00 +27°C° 0.5 mm 3 mps 710 mmHg 71%
    03:00 +27°C° 0.3 mm 3 mps 711 mmHg 71%
    04:00 +26°C° 0.3 mm 2 mps 711 mmHg 72%
    05:00 +26°C° 0.3 mm 2 mps 711 mmHg 73%
    06:00 +26°C° 0.2 mm 2 mps 712 mmHg 73%
    07:00 +27°C° 0.2 mm 3 mps 712 mmHg 72%
    08:00 +27°C° 0.2 mm 4 mps 713 mmHg 72%
    09:00 +28°C° 0.2 mm 3 mps 713 mmHg 66%
    10:00 +29°C° 0.2 mm 3 mps 713 mmHg 60%
    11:00 +30°C° 0.2 mm 2 mps 713 mmHg 54%
    12:00 +33°C° 0.1 mm 3 mps 713 mmHg 47%
    13:00 +34°C° 0.1 mm 4 mps 712 mmHg 40%
    14:00 +36°C° 0.1 mm 4 mps 712 mmHg 34%
    15:00 +36°C° 0 mm 4 mps 711 mmHg 33%
    16:00 +36°C° 0 mm 4 mps 710 mmHg 32%
    17:00 +36°C° 0 mm 4 mps 710 mmHg 32%
    18:00 +35°C° 0 mm 4 mps 711 mmHg 35%
    19:00 +34°C° 0 mm 3 mps 711 mmHg 39%
    20:00 +31°C° 0 mm 3 mps 712 mmHg 43%
    21:00 +31°C° 0.4 mm 2 mps 712 mmHg 48%
    22:00 +30°C° 0.4 mm 2 mps 713 mmHg 53%
    23:00 +29°C° 0.4 mm 2 mps 714 mmHg 58%

    Day after tomorrow, 14 November, Thursday

    Time Temperature Precipitation Wind Pressure Humidity
    00:00 +28°C° 0.5 mm 1 mps 714 mmHg 60%
    01:00 +28°C° 0.5 mm 1 mps 714 mmHg 62%
    02:00 +27°C° 0.5 mm 1 mps 714 mmHg 65%
    03:00 +27°C° 0.3 mm 1 mps 714 mmHg 67%
    04:00 +26°C° 0.3 mm 1 mps 714 mmHg 69%
    05:00 +26°C° 0.3 mm 1 mps 714 mmHg 71%
    06:00 +27°C° 0.2 mm 1 mps 714 mmHg 66%
    07:00 +28°C° 0.2 mm 1 mps 714 mmHg 61%
    08:00 +29°C° 0.2 mm 1 mps 715 mmHg 57%
    09:00 +30°C° 0.1 mm 2 mps 715 mmHg 52%
    10:00 +31°C° 0.1 mm 2 mps 715 mmHg 47%
    11:00 +34°C° 0.1 mm 2 mps 715 mmHg 43%
    12:00 +34°C° 0.1 mm 2 mps 714 mmHg 40%
    13:00 +35°C° 0.1 mm 2 mps 713 mmHg 38%
    14:00 +35°C° 0.1 mm 2 mps 712 mmHg 36%
    15:00 +36°C° 0 mm 3 mps 712 mmHg 35%
    16:00 +36°C° 0 mm 4 mps 712 mmHg 34%
    17:00 +36°C° 0 mm 4 mps 711 mmHg 33%
    18:00 +35°C° 0 mm 4 mps 712 mmHg 35%
    19:00 +34°C° 0 mm 4 mps 712 mmHg 38%
    20:00 +33°C° 0 mm 4 mps 713 mmHg 40%
    21:00 +32°C° 0 mm 4 mps 713 mmHg 44%
    22:00 +31°C° 0 mm 3 mps 713 mmHg 48%
    23:00 +30°C° 0 mm 2 mps 714 mmHg 52%

    15 November, Friday

    Time Temperature Precipitation Wind Pressure Humidity
    00:00 +29°C° 0 mm 2 mps 713 mmHg 53%
    01:00 +29°C° 0 mm 1 mps 713 mmHg 54%
    02:00 +28°C° 0 mm 1 mps 712 mmHg 55%
    03:00 +28°C° 0 mm 1 mps 712 mmHg 56%
    04:00 +27°C° 0 mm 1 mps 712 mmHg 58%
    05:00 +27°C° 0 mm 1 mps 712 mmHg 59%
    06:00 +28°C° 0 mm 1 mps 713 mmHg 54%
    07:00 +29°C° 0 mm 1 mps 713 mmHg 49%
    08:00 +30°C° 0 mm 1 mps 714 mmHg 44%
    09:00 +31°C° 0 mm 2 mps 713 mmHg 41%
    10:00 +34°C° 0 mm 2 mps 713 mmHg 37%
    11:00 +35°C° 0 mm 3 mps 713 mmHg 34%
    12:00 +36°C° 0 mm 3 mps 713 mmHg 32%
    13:00 +37°C° 0 mm 3 mps 712 mmHg 30%
    14:00 +38°C° 0 mm 3 mps 712 mmHg 28%
    15:00 +38°C° 0 mm 3 mps 711 mmHg 27%
    16:00 +38°C° 0 mm 4 mps 711 mmHg 27%
    17:00 +38°C° 0 mm 4 mps 710 mmHg 26%
    18:00 +37°C° 0 mm 4 mps 710 mmHg 30%
    19:00 +36°C° 0 mm 4 mps 711 mmHg 34%
    20:00 +34°C° 0 mm 4 mps 711 mmHg 38%
    21:00 +33°C° 0 mm 4 mps 711 mmHg 40%
    22:00 +33°C° 0 mm 3 mps 711 mmHg 43%
    23:00 +31°C° 0 mm 2 mps 711 mmHg 45%

    16 November, Saturday

    Time Temperature Precipitation Wind Pressure Humidity
    00:00 +30°C° 0 mm 2 mps 711 mmHg 46%
    01:00 +30°C° 0 mm 2 mps 710 mmHg 47%
    02:00 +29°C° 0 mm 1 mps 710 mmHg 48%
    03:00 +29°C° 0 mm 1 mps 710 mmHg 49%
    04:00 +28°C° 0 mm 1 mps 710 mmHg 51%
    05:00 +28°C° 0 mm 1 mps 709 mmHg 52%
    06:00 +29°C° 0 mm 2 mps 710 mmHg 49%
    07:00 +30°C° 0 mm 2 mps 711 mmHg 46%
    08:00 +31°C° 0 mm 3 mps 711 mmHg 43%
    09:00 +33°C° 0 mm 4 mps 712 mmHg 40%
    10:00 +34°C° 0 mm 5 mps 712 mmHg 38%
    11:00 +35°C° 0 mm 6 mps 712 mmHg 36%
    12:00 +36°C° 0 mm 6 mps 711 mmHg 35%
    13:00 +36°C° 0 mm 7 mps 711 mmHg 34%
    14:00 +38°C° 0 mm 7 mps 710 mmHg 33%
    15:00 +36°C° 0 mm 7 mps 710 mmHg 33%
    16:00 +36°C° 0 mm 6 mps 710 mmHg 33%
    17:00 +36°C° 0 mm 6 mps 709 mmHg 33%
    18:00 +35°C° 0.3 mm 5 mps 710 mmHg 37%
    19:00 +34°C° 0.3 mm 5 mps 710 mmHg 42%
    20:00 +32°C° 0.3 mm 4 mps 711 mmHg 46%
    21:00 +30°C° 0.6 mm 4 mps 711 mmHg 49%
    22:00 +30°C° 0.6 mm 4 mps 712 mmHg 52%
    23:00 +29°C° 0.6 mm 4 mps 712 mmHg 55%

    17 November, Sunday

    Time Temperature Precipitation Wind Pressure Humidity
    00:00 +28°C° 0.1 mm 3 mps 712 mmHg 54%
    01:00 +27°C° 0.1 mm 3 mps 712 mmHg 53%
    02:00 +27°C° 0.1 mm 2 mps 711 mmHg 52%
    03:00 +26°C° 0 mm 2 mps 711 mmHg 54%
    04:00 +25°C° 0 mm 3 mps 711 mmHg 55%
    05:00 +24°C° 0 mm 3 mps 711 mmHg 56%
    06:00 +25°C° 0 mm 3 mps 711 mmHg 54%
    07:00 +26°C° 0 mm 3 mps 712 mmHg 51%
    08:00 +26°C° 0 mm 3 mps 712 mmHg 49%
    09:00 +28°C° 0 mm 3 mps 712 mmHg 45%
    10:00 +29°C° 0 mm 3 mps 712 mmHg 42%
    11:00 +30°C° 0 mm 3 mps 712 mmHg 39%
    12:00 +31°C° 0 mm 3 mps 711 mmHg 37%
    13:00 +32°C° 0 mm 2 mps 711 mmHg 35%
    14:00 +34°C° 0 mm 2 mps 710 mmHg 34%
    15:00 +35°C° 0 mm 2 mps 710 mmHg 33%
    16:00 +35°C° 0 mm 2 mps 709 mmHg 33%
    17:00 +35°C° 0 mm 2 mps 709 mmHg 33%
    18:00 +34°C° 0 mm 3 mps 709 mmHg 35%
    19:00 +34°C° 0 mm 4 mps 710 mmHg 37%
    20:00 +33°C° 0 mm 5 mps 710 mmHg 39%
    21:00 +32°C° 0 mm 4 mps 711 mmHg 41%
    22:00 +31°C° 0 mm 3 mps 712 mmHg 42%
    23:00 +30°C° 0 mm 2 mps 712 mmHg 43%
    Show more